When you browse on this site, cookies collect data to enhance your experience and personalize the content and advertising you see.
Visit our Privacy Policy to learn more. By continuing to use the site, you agree to this use of cookies and data.
  • In Hungary
  • List of Countries
  • For 7 days
  • Water Temperature
  • Satellite Maps
  • Weather Map
  • News
  • Weather Widgets
  • user-avatar
    Login

    Hourly Weather San Fernando de Apure

    Today, 22 January, Tuesday

    Time Temperature Precipitation Wind Pressure Humidity
    00:00 +30°C° 0 mm 2 mps 755 mmHg 51%
    01:00 +29°C° 0 mm 3 mps 755 mmHg 54%
    02:00 +29°C° 0 mm 3 mps 755 mmHg 57%
    03:00 +28°C° 0 mm 3 mps 755 mmHg 60%
    04:00 +28°C° 0 mm 3 mps 755 mmHg 63%
    05:00 +27°C° 0 mm 3 mps 755 mmHg 66%
    06:00 +28°C° 0 mm 4 mps 756 mmHg 66%
    07:00 +28°C° 0 mm 4 mps 756 mmHg 65%
    08:00 +28°C° 0 mm 5 mps 756 mmHg 65%
    09:00 +30°C° 0 mm 5 mps 756 mmHg 58%
    10:00 +33°C° 0 mm 5 mps 756 mmHg 51%
    11:00 +35°C° 0 mm 5 mps 757 mmHg 45%
    12:00 +36°C° 0 mm 5 mps 756 mmHg 41%
    13:00 +37°C° 0 mm 5 mps 755 mmHg 36%
    14:00 +38°C° 0 mm 4 mps 754 mmHg 32%
    15:00 +38°C° 0 mm 4 mps 753 mmHg 31%
    16:00 +38°C° 0 mm 4 mps 752 mmHg 30%
    17:00 +38°C° 0 mm 4 mps 752 mmHg 29%
    18:00 +36°C° 0 mm 3 mps 752 mmHg 33%
    19:00 +34°C° 0 mm 3 mps 752 mmHg 36%
    20:00 +32°C° 0 mm 2 mps 753 mmHg 39%
    21:00 +31°C° 0 mm 2 mps 753 mmHg 41%
    22:00 +31°C° 0 mm 3 mps 754 mmHg 42%
    23:00 +31°C° 0 mm 3 mps 755 mmHg 43%

    Tomorrow, 23 January, Wednesday

    Time Temperature Precipitation Wind Pressure Humidity
    00:00 +30°C° 0 mm 3 mps 755 mmHg 50%
    01:00 +29°C° 0 mm 4 mps 755 mmHg 56%
    02:00 +28°C° 0 mm 4 mps 755 mmHg 63%
    03:00 +28°C° 0 mm 4 mps 755 mmHg 64%
    04:00 +28°C° 0 mm 3 mps 755 mmHg 66%
    05:00 +27°C° 0 mm 3 mps 755 mmHg 68%
    06:00 +28°C° 0 mm 4 mps 755 mmHg 67%
    07:00 +28°C° 0 mm 4 mps 756 mmHg 66%
    08:00 +28°C° 0 mm 5 mps 756 mmHg 65%
    09:00 +30°C° 0 mm 5 mps 756 mmHg 58%
    10:00 +33°C° 0 mm 5 mps 757 mmHg 51%
    11:00 +34°C° 0 mm 6 mps 757 mmHg 44%
    12:00 +36°C° 0 mm 5 mps 756 mmHg 41%
    13:00 +37°C° 0 mm 5 mps 755 mmHg 37%
    14:00 +39°C° 0 mm 5 mps 754 mmHg 34%
    15:00 +39°C° 0 mm 5 mps 753 mmHg 33%
    16:00 +39°C° 0 mm 5 mps 752 mmHg 33%
    17:00 +39°C° 0 mm 5 mps 752 mmHg 32%
    18:00 +36°C° 0 mm 4 mps 752 mmHg 35%
    19:00 +34°C° 0 mm 3 mps 752 mmHg 39%
    20:00 +32°C° 0 mm 2 mps 753 mmHg 42%
    21:00 +31°C° 0 mm 2 mps 753 mmHg 44%
    22:00 +31°C° 0 mm 3 mps 754 mmHg 45%
    23:00 +31°C° 0 mm 3 mps 755 mmHg 47%

    Day after tomorrow, 24 January, Thursday

    Time Temperature Precipitation Wind Pressure Humidity
    00:00 +30°C° 0 mm 3 mps 754 mmHg 51%
    01:00 +29°C° 0 mm 3 mps 754 mmHg 55%
    02:00 +29°C° 0 mm 4 mps 754 mmHg 59%
    03:00 +28°C° 0 mm 4 mps 754 mmHg 60%
    04:00 +28°C° 0 mm 3 mps 754 mmHg 62%
    05:00 +27°C° 0 mm 3 mps 754 mmHg 64%
    06:00 +28°C° 0 mm 4 mps 754 mmHg 63%
    07:00 +28°C° 0 mm 4 mps 755 mmHg 62%
    08:00 +28°C° 0 mm 5 mps 755 mmHg 61%
    09:00 +30°C° 0 mm 5 mps 756 mmHg 56%
    10:00 +32°C° 0 mm 5 mps 756 mmHg 50%
    11:00 +34°C° 0 mm 5 mps 756 mmHg 44%
    12:00 +35°C° 0 mm 5 mps 755 mmHg 41%
    13:00 +37°C° 0 mm 5 mps 754 mmHg 37%
    14:00 +39°C° 0 mm 5 mps 753 mmHg 34%
    15:00 +38°C° 0 mm 4 mps 752 mmHg 34%
    16:00 +38°C° 0 mm 4 mps 751 mmHg 34%
    17:00 +38°C° 0 mm 4 mps 751 mmHg 33%
    18:00 +36°C° 0 mm 4 mps 751 mmHg 37%
    19:00 +34°C° 0 mm 3 mps 752 mmHg 40%
    20:00 +32°C° 0 mm 2 mps 753 mmHg 43%
    21:00 +31°C° 0 mm 3 mps 753 mmHg 44%
    22:00 +31°C° 0 mm 3 mps 754 mmHg 45%
    23:00 +32°C° 0 mm 4 mps 754 mmHg 47%

    25 January, Friday

    Time Temperature Precipitation Wind Pressure Humidity
    00:00 +30°C° 0 mm 4 mps 754 mmHg 49%
    01:00 +30°C° 0 mm 4 mps 754 mmHg 51%
    02:00 +29°C° 0 mm 4 mps 754 mmHg 53%
    03:00 +29°C° 0 mm 4 mps 754 mmHg 55%
    04:00 +28°C° 0 mm 4 mps 754 mmHg 57%
    05:00 +28°C° 0 mm 4 mps 754 mmHg 59%
    06:00 +28°C° 0 mm 4 mps 754 mmHg 60%
    07:00 +28°C° 0 mm 5 mps 755 mmHg 60%
    08:00 +28°C° 0 mm 5 mps 755 mmHg 60%
    09:00 +29°C° 0 mm 5 mps 756 mmHg 55%
    10:00 +32°C° 0 mm 5 mps 756 mmHg 49%
    11:00 +34°C° 0 mm 5 mps 756 mmHg 43%
    12:00 +35°C° 0 mm 5 mps 755 mmHg 39%
    13:00 +36°C° 0 mm 5 mps 753 mmHg 36%
    14:00 +38°C° 0 mm 4 mps 752 mmHg 32%
    15:00 +37°C° 0 mm 4 mps 751 mmHg 31%
    16:00 +37°C° 0 mm 4 mps 751 mmHg 30%
    17:00 +37°C° 0 mm 4 mps 750 mmHg 30%
    18:00 +35°C° 0 mm 3 mps 750 mmHg 33%
    19:00 +34°C° 0 mm 2 mps 751 mmHg 36%
    20:00 +31°C° 0 mm 2 mps 751 mmHg 39%
    21:00 +30°C° 0 mm 2 mps 752 mmHg 41%
    22:00 +30°C° 0 mm 2 mps 752 mmHg 42%
    23:00 +29°C° 0 mm 2 mps 753 mmHg 43%

    26 January, Saturday

    Time Temperature Precipitation Wind Pressure Humidity
    00:00 +29°C° 0 mm 2 mps 753 mmHg 46%
    01:00 +28°C° 0 mm 3 mps 753 mmHg 49%
    02:00 +28°C° 0 mm 3 mps 753 mmHg 52%
    03:00 +28°C° 0 mm 3 mps 753 mmHg 54%
    04:00 +27°C° 0 mm 3 mps 753 mmHg 57%
    05:00 +27°C° 0 mm 4 mps 753 mmHg 59%
    06:00 +27°C° 0 mm 4 mps 753 mmHg 59%
    07:00 +27°C° 0 mm 5 mps 754 mmHg 59%
    08:00 +27°C° 0 mm 5 mps 755 mmHg 59%
    09:00 +29°C° 0 mm 5 mps 755 mmHg 54%
    10:00 +32°C° 0 mm 5 mps 755 mmHg 48%
    11:00 +34°C° 0 mm 5 mps 755 mmHg 43%
    12:00 +35°C° 0 mm 5 mps 754 mmHg 40%
    13:00 +37°C° 0 mm 4 mps 753 mmHg 36%
    14:00 +38°C° 0 mm 4 mps 751 mmHg 33%
    15:00 +38°C° 0 mm 4 mps 751 mmHg 32%
    16:00 +38°C° 0 mm 4 mps 750 mmHg 32%
    17:00 +38°C° 0 mm 3 mps 749 mmHg 31%
    18:00 +36°C° 0 mm 3 mps 750 mmHg 35%
    19:00 +34°C° 0 mm 2 mps 750 mmHg 38%
    20:00 +31°C° 0 mm 2 mps 750 mmHg 41%
    21:00 +31°C° 0 mm 2 mps 751 mmHg 42%
    22:00 +30°C° 0 mm 2 mps 751 mmHg 42%
    23:00 +30°C° 0 mm 2 mps 752 mmHg 43%

    27 January, Sunday

    Time Temperature Precipitation Wind Pressure Humidity
    00:00 +29°C° 0 mm 2 mps 752 mmHg 48%
    01:00 +29°C° 0 mm 3 mps 752 mmHg 52%
    02:00 +28°C° 0 mm 3 mps 752 mmHg 57%
    03:00 +28°C° 0 mm 3 mps 752 mmHg 60%
    04:00 +27°C° 0 mm 3 mps 752 mmHg 63%
    05:00 +27°C° 0 mm 3 mps 752 mmHg 66%
    06:00 +27°C° 0 mm 4 mps 753 mmHg 65%
    07:00 +27°C° 0 mm 4 mps 753 mmHg 64%
    08:00 +28°C° 0 mm 5 mps 754 mmHg 64%
    09:00 +30°C° 0 mm 5 mps 754 mmHg 57%
    10:00 +32°C° 0 mm 5 mps 754 mmHg 50%
    11:00 +34°C° 0 mm 5 mps 754 mmHg 43%
    12:00 +35°C° 0 mm 5 mps 753 mmHg 39%
    13:00 +37°C° 0 mm 4 mps 752 mmHg 36%
    14:00 +38°C° 0 mm 4 mps 751 mmHg 32%
    15:00 +38°C° 0 mm 4 mps 750 mmHg 32%
    16:00 +38°C° 0 mm 4 mps 750 mmHg 32%
    17:00 +38°C° 0 mm 4 mps 749 mmHg 31%
    18:00 +36°C° 0 mm 3 mps 750 mmHg 35%
    19:00 +34°C° 0 mm 2 mps 750 mmHg 38%
    20:00 +31°C° 0 mm 2 mps 751 mmHg 42%
    21:00 +31°C° 0 mm 2 mps 751 mmHg 43%
    22:00 +30°C° 0 mm 2 mps 752 mmHg 44%
    23:00 +30°C° 0 mm 2 mps 752 mmHg 45%
    Show more